[Iaude] MPEC X142: 2000 YS134 [a=0.86,e=0.22,i=3.5,H=23.82]

mpec at marsden.cfa.harvard.edu mpec at marsden.cfa.harvard.edu
Thu Dec 7 19:19:01 EST 2023


M.P.E.C. 2023-X142                             Issued 2023 December 8, 00:17 UT

     The Minor Planet Electronic Circulars contain information on unusual
         minor planets, routine data on comets and natural satellites,
         and occasional editorial announcements.  They are published
    on behalf of Division F of the International Astronomical Union by the
          Minor Planet Center, Smithsonian Astrophysical Observatory,
                          Cambridge, MA 02138, U.S.A.
			  
             Prepared using the Tamkin Foundation Computer Network

                              MPC at CFA.HARVARD.EDU
            URL https://www.minorplanetcenter.net/    ISSN 1523-6714

                                   2000 YS134                                   


                           Revision to MPEC 2001-A49                            

Additional Observations:
     K00YD4S 1C2023 12 07.46250509 35 08.149-00 24 23.76         20.08GVEX142G96
     K00YD4S 1C2023 12 07.46761509 35 06.702-00 24 10.69         20.17GVEX142G96
     K00YD4S 1C2023 12 07.47272709 35 05.226-00 23 57.98         20.06GVEX142G96
     K00YD4S 1C2023 12 07.47784809 35 03.779-00 23 45.35         20.32GVEX142G96
     K00YD4S mC2023 12 07.53165309 34 48.338-00 21 29.95         20.18GVEX142I52
     K00YD4S mC2023 12 07.53425909 34 47.615-00 21 23.36         20.75GVEX142I52
     K00YD4S mC2023 12 07.53688509 34 46.844-00 21 16.74         21.32GVEX142I52
     K00YD4S pC2023 12 07.98891009 32 59.30 -00 02 25.2          20.1 GVEX142L01
     K00YD4S pC2023 12 07.99017409 32 58.97 -00 02 22.0          20.0 GVEX142L01
     K00YD4S pC2023 12 07.99459209 32 57.71 -00 02 11.2          20.5 GVEX142L01

Observer details:
G96 Mt. Lemmon Survey.  Observer J. K. Hogan.  Measurers E. C. Beshore, D.
    Fay, J. B. Fazekas, D. C. Fuls, A. R. Gibbs, A. D. Grauer, H. Groeller, J.
    K. Hogan, R. A. Kowalski, S. M. Larson, G. J. Leonard, D. Rankin, R. L.
    Seaman, F. C. Shelly, K. W. Wierzchos.  1.5-m reflector + 10K CCD.
I52 Steward Observatory, Mt. Lemmon Station.  Observer K. W. Wierzchos.
    Measurers E. C. Beshore, D. Fay, J. B. Fazekas, D. C. Fuls, A. R. Gibbs,
    A. D. Grauer, H. Groeller, J. K. Hogan, R. A. Kowalski, S. M. Larson, G.
    J. Leonard, D. Rankin, R. L. Seaman, F. C. Shelly, K. W. Wierzchos.  1.0-m
    prime focus + CCD.
L01 Visnjan Observatory, Tican.  Observer K. Korlevic.  1.0-m f/2.9 reflector
    + CCD.

First and last observations above in comparison with prediction:
Residuals in seconds of arc (or two decimals in degrees), reference and Delta-T
231207 G96 0.75+ 0.22+    231207 L01 0.78+ 0.21+    MPO 11023   +0.11 days

Orbital elements:
2000 YS134                                               Earth MOID = 0.0270 AU
Epoch 2023 Sept. 13.0 TT = JDT 2460200.5                Veres                   
M  31.10860              (2000.0)            P               Q                  
n   1.24515251     Peri.  190.22271     +0.29406476     +0.95384414             
a   0.8556990      Node    96.89864     -0.87252946     +0.29390826             
e   0.2239430      Incl.    3.51624     -0.39015158     +0.06163842             
P   0.79           H   23.82          G   0.15           U   3                  
Residuals in seconds of arc
001230 704  0.3+  0.7-    010105 704  0.7-  0.4+    231207 G96  0.2+  0.1-
001230 704  1.3+  0.2-    010105 704  1.5-  0.9+    231207 G96  0.0   0.2-
001230 704  0.1-  0.8+    010109 046  1.2+  1.9-    231207 G96  0.3+  0.4-
001230 704  0.8-  0.3-    010109 046  0.2+  0.1+    231207 I52  0.1-  0.1+
010104 704  1.0+  0.2-    010113 611  0.3-  0.1+    231207 I52  0.2+  0.1+
010104 704  0.5+  0.4+    010113 611  1.6+  2.1-    231207 I52  0.1-  0.1+
010104 704  0.6-  0.9-    010113 611  1.0+  1.9+    231207 L01  0.6-  0.5+
010104 704  0.1+  0.3-    010228 568  0.5-  0.5+    231207 L01  0.4-  0.4+
010105 704  0.5-  0.0     010228 568  0.5-  0.7+    231207 L01  1.2-  0.2-
010105 704  1.1-  0.1-    231207 G96  0.1+  0.4-

Ephemeris:
2000 YS134               a,e,i = 0.86, 0.22, 4                   q = 0.6641
Date    TT    R. A. (2000) Decl.     Delta      r    Elong.  Phase     V
2023 11 08    10 49 03.5 -12 22 28   0.1293  0.9296    58.3   114.9    23.7
...
2023 11 23    10 17 17.0 -07 37 51   0.1053  0.9774    81.4    92.5    22.2
...
2023 12 01    09 57 21.7 -04 12 13   0.09112 0.9983    95.0    79.8    21.4
...
2023 12 07    09 36 59.5 -00 42 29   0.08023 1.0116   106.9    68.7    20.8
2023 12 08    09 32 52.3 -00 00 40   0.07845 1.0136   109.1    66.7    20.7
2023 12 09    09 28 29.6 +00 43 31   0.07669 1.0156   111.4    64.5    20.6
...
2023 12 15    08 55 40.0 +06 05 44   0.06707 1.0261   127.0    50.0    19.9
...
2023 12 23    07 50 11.0 +15 43 57   0.05915 1.0370   153.5    25.0    18.9
...
2024 01 07    05 16 37.7 +29 52 05   0.07022 1.0469   153.9    24.4    19.3

A. U. Tomatic                (C) Copyright 2023 MPC           M.P.E.C. 2023-X142





More information about the Iaude mailing list